Simultaneous Nadir Overpasses (SNOs) Predictions

Prediction of SNOs between GOES-16 and METOP-B Satellite Orbit:

Table of predicted SNOs for the next 14.0 days since TLE Epoch: 2/23/2018
Index Date Time (GOES-16) GOES-16 Lat,Lon METOP-B Lat,Lon Distance(km) Time Diff (sec)
1 02/24/2018 02:19:21 -0.00, -75.18 0.52, -72.76 274.90 80
2 02/25/2018 14:40:53 0.00, -75.22 0.47, -77.33 240.37 80
3 02/26/2018 14:17:34 0.00, -75.23 -0.65, -72.34 329.90 80
4 02/28/2018 02:39:13 -0.00, -75.22 -0.40, -76.93 194.73 80
5 03/01/2018 02:15:54 -0.00, -75.24 0.72, -71.94 375.89 80
6 03/02/2018 14:37:26 0.00, -75.29 0.26, -76.51 138.09 80
7 03/03/2018 14:14:07 0.00, -75.31 -0.86, -71.51 433.14 80
8 03/05/2018 02:35:46 -0.00, -75.32 -0.19, -76.10 89.88 80
9 03/06/2018 02:12:26 -0.00, -75.34 0.93, -71.11 481.69 80
10 03/07/2018 14:33:59 0.01, -75.41 0.05, -75.68 31.04 80




NCC Satellite Simultaneous Nadir Overpasses (SNOs) Prediction Service
